STARLINK-1626, 46167

Orbit data source: Space-Track

STARLINK-1626, 46167 is a payload satellite owned by SpaceX/Seattle (US) in LEO that was launched on Tue, 18 Aug 2020 UTC via an FALCON 9 launch vehicle from the Air Force Eastern Test Range (AFETR). Payload-class satellites include a variety of spacecraft equipped with specific instruments for various scientific and technological missions. These include communications satellites like Starlink; space stations such as the ISS; scientific satellites like the Hubble; Earth observation satellites from companies like Planet Labs, Umbra, and HawkEye 360; GPS; miniature CubeSats for education and research; and military/defense satellites.

Loading next visibility...
Identifier
46167, 2020-057BC
Orbit
LEO
Country
Flag of USUS
Related business
Manufacturer
SpaceX/Seattle
Mission
Operational Commercial Communications
Bus & Motor
STARLINK, Unknown motor
Mass
260 kg wet, ~248 kg dry
Launch date (UTC)
2020-08-18 (5 years ago)
Launch vehicle
FALCON 9
Launch site
Air Force Eastern Test Range (AFETR)
Object type
Payload
Rocket body
Debris
Shape & HBR
Box + 1 Pan, 10.1 m
Radar Cross Section
13.562 m², Large (>1 m²)

Expand to show TLE details & history
Last TLE update: 17 hours ago

TLE from 17 hours ago
0 STARLINK-1626
1 46167U 20057BC  25287.16951122  .00002320  00000-0  17456-3 0  9992
2 46167  53.0535 254.3713 0001520  93.9347 266.1815 15.06403319283986
Epoch: 2025-10-14T04:04Z
TLE epoch observation values (Epoch: 2025-10-14T04:04:05.769Z)
Latitude
-0.00008°
Longitude
170.38541°
Altitude
548.151 km
Speed
7.589 km/s
True Right ascension
16h 57m 29s
True Declination
0° 00' 00"
Sunlit
Object was in daylight at epoch
Visualization orbit readout
Latitude
Unknown
Longitude
Unknown
Altitude
Unknown
Speed
Unknown
Apparent Right ascension
Unknown
Apparent Declination
Unknown
Sunlit
N/A
Visualization observer readout
Local Sidereal Time
15:26:41
Azimuth
Unknown
Elevation
Unknown
Doppler factor
Unknown
Orbital elements
Apogee altitude
548.525 km
Perigee altitude
546.42 km
Semi-major axis
6,925.609 km
Eccentricity
0.00015
Inclination
53.0535°
RAAN
254.3713°
Arg. of periapsis
93.9347°
True anomaly
266.16412°
Mean anomaly
266.1815°
Eccentric anomaly
266.17281°
Mean motion
3.76579 °/min
Orbital period
95.6 mins
BSTAR
0.00017456
Loading maneuver chart data...
Computing Atmospheric mass density...
Loading historical data...
Loading historical data...
Loading historical data...
Loading historical data...
Loading historical data...
Loading historical data...
Loading historical data...

Documentation

Showing up to 5 results
|